TimeMST,TemperatureF,Dew PointF,Humidity,Sea Level PressureIn,VisibilityMPH,Wind Direction,Wind SpeedMPH,Gust SpeedMPH,PrecipitationIn,Events,Conditions,WindDirDegrees,DateUTC
12:57 AM,18.0,12.0,78,30.02,10.0,Calm,Calm,-,N/A,,Clear,0,2012-11-11 07:57:00
1:57 AM,18.0,12.0,78,30.04,10.0,Calm,Calm,-,N/A,,Clear,0,2012-11-11 08:57:00
2:57 AM,12.0,9.0,88,30.11,10.0,Calm,Calm,-,N/A,,Clear,0,2012-11-11 09:57:00
3:57 AM,10.9,8.1,88,30.13,10.0,Calm,Calm,-,N/A,,Clear,0,2012-11-11 10:57:00
4:57 AM,14.0,10.0,84,30.15,10.0,WNW,3.5,-,N/A,,Clear,300,2012-11-11 11:57:00
5:57 AM,16.0,10.9,81,30.16,10.0,WSW,3.5,-,N/A,,Clear,250,2012-11-11 12:57:00
6:57 AM,19.0,12.0,74,30.18,10.0,Variable,4.6,-,N/A,,Clear,0,2012-11-11 13:57:00
7:57 AM,19.0,12.9,77,30.22,-9999.0,Variable,4.6,-,N/A,,Clear,0,2012-11-11 14:57:00
8:57 AM,25.0,14.0,63,30.22,10.0,Variable,6.9,-,N/A,,Clear,0,2012-11-11 15:57:00
9:57 AM,27.0,12.0,53,30.24,10.0,WNW,8.1,-,N/A,,Clear,290,2012-11-11 16:57:00
10:57 AM,30.0,10.0,43,30.25,10.0,West,6.9,-,N/A,,Clear,280,2012-11-11 17:57:00
11:57 AM,33.1,7.0,34,30.23,10.0,Variable,3.5,-,N/A,,Clear,0,2012-11-11 18:57:00
12:57 PM,35.1,-0.9,22,30.22,10.0,North,6.9,-,N/A,,Clear,360,2012-11-11 19:57:00
1:57 PM,35.1,1.0,24,30.22,10.0,Variable,4.6,-,N/A,,Clear,0,2012-11-11 20:57:00
2:57 PM,37.0,3.9,25,30.25,10.0,Calm,Calm,-,N/A,,Clear,0,2012-11-11 21:57:00
3:57 PM,37.0,5.0,26,30.28,10.0,Calm,Calm,-,N/A,,Clear,0,2012-11-11 22:57:00
4:57 PM,35.1,6.1,30,30.29,10.0,ENE,5.8,-,N/A,,Clear,70,2012-11-11 23:57:00
5:57 PM,28.9,9.0,43,30.32,10.0,East,3.5,-,N/A,,Clear,80,2012-11-12 00:57:00
6:57 PM,26.1,12.0,55,30.35,10.0,Calm,Calm,-,N/A,,Clear,0,2012-11-12 01:57:00
7:57 PM,25.0,12.0,58,30.39,10.0,Calm,Calm,-,N/A,,Clear,0,2012-11-12 02:57:00
8:57 PM,21.9,12.9,68,30.39,10.0,Calm,Calm,-,N/A,,Clear,0,2012-11-12 03:57:00
9:57 PM,21.0,12.9,71,30.40,10.0,Calm,Calm,-,N/A,,Clear,0,2012-11-12 04:57:00
10:57 PM,24.1,8.1,51,30.38,10.0,ENE,6.9,-,N/A,,Clear,70,2012-11-12 05:57:00
11:57 PM,21.9,8.1,55,30.38,10.0,ENE,5.8,-,N/A,,Clear,60,2012-11-12 06:57:00